Terminal Aerodrome Forecast
Issued by NWS Cleveland, OH

Home | Current Version | Previous Version | Text Only | Print | Product List | Glossary Off
Versions: 1 2 3 4 5 6 7 8 9 10 11 12 13 14 15 16 17 18 19 20 21 22 23 24 25 26 27

208
FTUS41 KCLE 191840 AAB
TAFCLE
TAF AMD
KCLE 191840Z 1919/2024 28014G22KT P6SM VCSH OVC035
      TEMPO 1919/1922 6SM -SHSN OVC025
     FM200200 27014G22KT P6SM BKN040
     FM200900 24013KT P6SM BKN090
     FM201100 22013KT P6SM SCT140
     FM202200 22018G28KT P6SM FEW200=

USA.gov is the U.S. government's official web portal to all federal, state and local government web resources and services.